Regional Weather Roundup
Issued by NWS Albany, NY

Home | Current Version | Previous Version | Text Only | Print | Product List | Glossary On
Versions: 1 2 3 4 5 6 7 8 9 10 11 12 13 14 15 16 17 18 19 20 21 22 23 24 25 26 27 28 29 30 31 32 33 34 35 36 37 38 39 40 41 42 43 44 45 46 47 48 49 50
000
ASUS41 KALY 240310
RWRALY

NEW YORK STATE HOURLY WEATHER ROUNDUP
NATIONAL WEATHER SERVICE ALBANY NY
1000 PM EST SUN NOV 23 2014

NOTE: "FAIR" INDICATES FEW OR NO CLOUDS BELOW 12,000 FEET WITH NO
SIGNIFICANT WEATHER AND/OR NO OBSTRUCTIONS TO VISIBILITY.

NYZ032-033-038>043-046>054-057>066-NYZ062>081-240400-
EAST


CITY           SKY/WX    TMP DP  RH WIND       PRES   REMARKS
ALBANY         CLOUDY    51  28  41 S12       30.02F
GLENS FALLS    PTCLDY    34  31  88 CALM      30.02F
POUGHKEEPSIE   CLOUDY    47  28  47 SE7       30.06F
NEWBURGH       MOCLDY    46  30  53 VRB6      30.06F
MONTGOMERY     CLOUDY    37  29  72 N3        30.04F
WHITE PLAINS   CLOUDY    43  35  73 CALM      30.07F
ISLIP          CLOUDY    44  39  82 E6        30.08F
NEW YORK CITY  CLOUDY    51  46  83 S5        30.07F
CENTRAL PARK   CLOUDY    53  43  68 S3        30.09F
$$

NYZ005>009-017-018-044>046-055-056-240400-
CENTRAL


CITY           SKY/WX    TMP DP  RH WIND       PRES   REMARKS
FULTON         CLOUDY    48  34  58 SE7       29.84F
SYRACUSE       CLOUDY    54  33  45 SE13G20   29.86F
ROME           CLOUDY    48  37  65 E9        29.94F
ELMIRA         CLOUDY    49  34  56 CALM      29.87F
BINGHAMTON     CLOUDY    46  31  55 SE12      29.91F
MONTICELLO     CLOUDY    39  27  60 E6        30.03F WCI  35
$$

NYZ026>034-041>043-240400-
NORTH


CITY           SKY/WX    TMP DP  RH WIND       PRES   REMARKS
WATERTOWN      CLOUDY    54  32  43 S12       29.83F
FORT DRUM      NOT AVBL
MASSENA        CLOUDY    44  41  89 CALM      29.91F
SARANAC LAKE   CLOUDY    35  34  96 CALM      29.91F FOG
PLATTSBURGH    CLOUDY    41  38  89 CALM      29.97F
$$

NYZ001>004-010>016-019>021-240400-
WEST


CITY           SKY/WX    TMP DP  RH WIND       PRES   REMARKS
NIAGARA FALLS  CLOUDY    52  37  56 SE10      29.66F
BUFFALO        CLOUDY    50  35  56 SE9       29.68F
DUNKIRK        CLOUDY    54  36  50 S20       29.63F
JAMESTOWN      CLOUDY    48  34  57 SE10G18   29.69F
WELLSVILLE     CLOUDY    48  32  53 S22G33    29.79F
ROCHESTER      CLOUDY    49  35  58 SE12      29.74F
PENN YAN       CLOUDY    53  34  48 S14G22    29.81F
$$

             KEY
       WCI = WIND CHILL INDEX
       VSB = VISIBILITY
       HX  = HEAT INDEX
$$



USA.gov is the U.S. government's official web portal to all federal, state and local government web resources and services.